Location: �clusier
(49.9361°N, 2.7869°E)
Time: 18:13:50
(UTC+00:00)

Cosmos 1624 Rocket - Visible Passes

Search period start: 21 October 2021 00:00
Search period end: 31 October 2021 00:00
Orbit: 756 x 785 km, 74.0° (Epoch: 20 October)

Date Brightness Start Highest point End Pass type
(mag) Time Alt. Az. Time Alt. Az. Time Alt. Az.
21 Oct 7.0 03:23:38 10° NNE 03:24:32 10° NNE 03:25:24 10° NE visible
21 Oct 5.4 05:03:13 10° NNW 05:08:16 40° ENE 05:13:15 10° SE visible
22 Oct 6.0 04:27:04 10° N 04:31:39 28° NE 04:36:11 10° ESE visible
23 Oct 6.5 03:51:03 10° N 03:54:57 20° NE 03:58:49 10° E visible
23 Oct 4.1 05:32:27 10° NNW 05:37:50 88° WSW 05:43:09 10° SSE visible
24 Oct 6.8 03:15:15 10° N 03:18:08 14° NE 03:21:00 10° ENE visible
24 Oct 4.6 04:56:07 10° NNW 05:01:26 61° ENE 05:06:41 10° SE visible
25 Oct 7.0 02:40:09 10° NNE 02:41:13 11° NNE 02:42:17 10° NE visible
25 Oct 5.3 04:19:52 10° NNW 04:24:56 41° ENE 04:29:56 10° SE visible
25 Oct 6.1 19:02:05 10° S 19:02:47 14° S 19:02:47 14° S visible
26 Oct 5.9 03:43:44 10° N 03:48:20 28° NE 03:52:53 10° ESE visible
26 Oct 4.1 05:25:34 10° NNW 05:30:47 56° WSW 05:35:57 10° S visible
26 Oct 5.3 18:26:25 10° SSE 18:28:55 23° SE 18:28:55 23° SE visible
26 Oct 6.1 20:07:44 10° SW 20:09:21 20° SW 20:09:21 20° SW visible
27 Oct 6.4 03:07:42 10° N 03:11:38 20° NE 03:15:31 10° E visible
27 Oct 4.0 04:49:07 10° NNW 04:54:29 86° WSW 04:59:47 10° SSE visible
27 Oct 5.3 17:51:14 10° SE 17:54:54 19° E 17:54:58 19° E visible
27 Oct 4.5 19:31:06 10° SSW 19:35:23 56° SW 19:35:23 56° SW visible
28 Oct 6.8 02:31:51 10° N 02:34:49 15° NE 02:37:44 10° ENE visible
28 Oct 4.5 04:12:46 10° NNW 04:18:05 63° ENE 04:23:20 10° SE visible
28 Oct 5.2 05:55:42 10° NW 05:59:44 22° W 06:03:44 10° SSW visible
28 Oct 5.8 17:17:04 10° ESE 17:18:55 12° E 17:20:46 10° ENE visible
28 Oct 3.9 18:54:45 10° SSW 19:00:03 75° ESE 19:01:15 54° NE visible
28 Oct 6.3 20:38:36 10° W 20:41:39 21° WNW 20:41:39 21° WNW visible
29 Oct 7.0 01:56:40 10° NNE 01:57:54 11° NE 01:59:08 10° NE visible
29 Oct 5.2 03:36:40 11° NNW 03:41:36 41° ENE 03:46:36 10° SE visible
29 Oct 4.6 05:18:51 10° NW 05:23:37 34° WSW 05:28:21 10° SSW visible
29 Oct 4.2 18:18:42 10° S 18:23:46 48° ESE 18:26:50 23° NE visible
29 Oct 5.6 20:01:21 10° WSW 20:06:06 32° NW 20:07:14 29° NNW visible
30 Oct 5.8 03:02:21 19° N 03:04:59 29° NE 03:09:34 10° ESE visible
30 Oct 4.1 04:42:46 13° NNW 04:47:26 54° WSW 04:52:34 10° S visible
30 Oct 4.8 17:43:01 10° SSE 17:47:36 31° E 17:52:10 10° NE visible
30 Oct 4.9 19:24:24 10° SW 19:29:32 47° WNW 19:32:32 23° N visible
30 Oct 6.9 21:11:10 10° WNW 21:12:54 12° NW 21:12:54 12° NW visible
